Change the Weather History Date:

Friday, October 25, 2013

  Actual Average Record
Temperature  
Mean Temperature 72 °F -  
Max Temperature 90 °F 82 °F 97 °F (2014)
Min Temperature 55 °F 58 °F 53 °F (2012)
Cooling Degree Days 8    
Growing Degree Days 22 (Base 50)    
Moisture  
Dew Point 35 °F    
Average Humidity 29    
Maximum Humidity 51    
Minimum Humidity 11    
Precipitation  
Precipitation 0.00 in - - ()
Sea Level Pressure  
Sea Level Pressure 30.01 in    
Wind  
Wind Speed 4 mph (SSW)    
Max Wind Speed 7 mph    
Max Gust Speed -    
Visibility 10 miles    
Events      
Averages and records for this station are not official NWS values.
T = Trace of Precipitation, MM = Missing Value Source: NWS Daily Summary

Daily Weather History Graph

Daily Weather History Graph

Search for Another Location

Airport or City:

Trip Planner

Search our weather history database for the weather conditions in past years. The results will help you decide how hot, cold, wet, or windy it might be!

Date:

Astronomy

Oct. 25, 2013 Rise Set
Actual Time 6:54 AM PDT 5:57 PM PDT
Civil Twilight 6:29 AM PDT 6:23 PM PDT
Nautical Twilight 6:00 AM PDT 6:52 PM PDT
Astronomical Twilight 5:32 AM PDT 7:20 PM PDT
Moon 11:25 PM PDT (10/25) 12:33 PM PDT (10/25)
Length of Visible Light 11h 53m
Length of Day
11h 03m
Waning Gibbous, 61% of the Moon is Illuminated
Oct 25
Waning Gibbous
Oct 26
Last Quarter
Nov 3
New
Nov 9
First Quarter
Nov 17
Full

Hourly Weather History & Observations

Time (PDT) Temp. Dew Point Humidity Pressure Visibility Wind Dir Wind Speed Gust Speed Precip Events Conditions
12:56 AM 61.0 °F 37.0 °F 41% 29.96 in 10.0 mi SW 5.8 mph - N/A   Clear
1:56 AM 59.0 °F 36.0 °F 42% 29.98 in 10.0 mi West 4.6 mph - N/A   Clear
2:56 AM 61.0 °F 36.0 °F 39% 29.97 in 10.0 mi WSW 4.6 mph - N/A   Clear
3:56 AM 61.0 °F 36.0 °F 39% 29.97 in 10.0 mi WSW 6.9 mph - N/A   Clear
4:56 AM 57.0 °F 34.0 °F 42% 29.99 in 10.0 mi WSW 4.6 mph - N/A   Clear
5:56 AM 57.0 °F 37.9 °F 49% 30.00 in 10.0 mi SW 3.5 mph - N/A   Clear
6:56 AM 55.0 °F 37.0 °F 51% 30.01 in 10.0 mi SSW 4.6 mph - N/A   Clear
7:56 AM 55.9 °F 35.1 °F 45% 30.04 in 10.0 mi Calm Calm - N/A   Clear
8:56 AM 66.0 °F 39.0 °F 37% 30.06 in 10.0 mi Calm Calm - N/A   Clear
9:56 AM 73.0 °F 36.0 °F 26% 30.07 in 10.0 mi Calm Calm - N/A   Partly Cloudy
10:56 AM 80.1 °F 34.0 °F 19% 30.06 in 10.0 mi Calm Calm - N/A   Partly Cloudy
11:56 AM 84.0 °F 32.0 °F 15% 30.05 in 10.0 mi Calm Calm - N/A   Clear
12:56 PM 84.9 °F 36.0 °F 17% 30.03 in 10.0 mi South 4.6 mph - N/A   Partly Cloudy
1:56 PM 88.0 °F 32.0 °F 14% 30.01 in 10.0 mi SE 4.6 mph - N/A   Partly Cloudy
2:56 PM 89.1 °F 30.9 °F 12% 29.99 in 10.0 mi East 3.5 mph - N/A   Partly Cloudy
3:56 PM 90.0 °F 28.9 °F 11% 29.99 in 10.0 mi East 4.6 mph - N/A   Partly Cloudy
4:56 PM 90.0 °F 28.0 °F 11% 29.98 in 10.0 mi SE 3.5 mph - N/A   Partly Cloudy
5:56 PM 84.9 °F 39.0 °F 20% 29.98 in 10.0 mi Calm Calm - N/A   Scattered Clouds
6:56 PM 80.1 °F 32.0 °F 17% 29.99 in 10.0 mi SE 3.5 mph - N/A   Clear
7:56 PM 75.9 °F 34.0 °F 22% 30.00 in 10.0 mi Calm Calm - N/A   Clear
8:56 PM 69.1 °F 36.0 °F 30% 30.01 in 10.0 mi Calm Calm - N/A   Clear
9:56 PM 70.0 °F 30.9 °F 24% 30.02 in 10.0 mi NNW 3.5 mph - N/A   Clear
10:56 PM 66.9 °F 39.9 °F 37% 30.03 in 10.0 mi WSW 5.8 mph - N/A   Clear
11:56 PM 64.9 °F 33.1 °F 31% 30.03 in 10.0 mi West 5.8 mph - N/A   Clear